Location: Bannatyne
(13.0833°N, 59.5333°W)
Time: 08:54:55
(UTC+00:00)

Vanguard 2 Rocket - Pass Details

Date: 23 January 2020
Orbit: 554 x 3326 km, 32.9° (Epoch: 08 April)

Event Time Altitude Azimuth Distance (km) Brightness Sun altitude
Rises 18:12:55 0° 282° (WNW) 5,978 11.4 45.6°
Reaches altitude 10° 18:16:59 10° 273° (W) 5,310 11.4 44.9°
Maximum altitude 18:31:35 35° 215° (SW) 4,370 12.5 42.3°
Drops below altitude 10° 18:48:56 10° 156° (SSE) 6,185 11.4 39.1°
Sets 18:54:20 0° 148° (SSE) 7,026 11.5 38.1°
